Regional Weather Roundup
Issued by NWS

Home | Current Version | Previous Version | Graphics & Text | Print | Product List | Glossary On
Versions: 1 2 3 4 5 6 7 8 9 10 11 12 13 14 15 16 17 18 19 20 21 22 23 24 25 26 27 28 29 30 31 32 33 34 35 36 37 38 39 40 41 42 43 44 45 46 47 48 49 50
000
ASUS43 KFSD 190002
RWRSD

WEATHER ROUNDUP FOR SOUTH DAKOTA
NATIONAL WEATHER SERVICE SIOUX FALLS SD
700 PM CDT MON SEP 18 2017

NOTE: "FAIR" INDICATES FEW OR NO CLOUDS BELOW 12,000 FEET WITH NO
SIGNIFICANT WEATHER AND/OR OBSTRUCTIONS TO VISIBILITY.


SDZ001>005-009-010-012>017-190100-
NORTHWEST AND NORTH CENTRAL SOUTH DAKOTA

CITY           SKY/WX    TMP DP  RH WIND       PRES   REMARKS
BUFFALO          N/A     75  37  25 SE14      29.66F
MOBRIDGE       PTCLDY    70  51  51 NE7       29.75F
$$

SDZ012>016-024>037-041>051-057-063-072>074-190100-
SOUTHWEST AND SOUTH CENTRAL SOUTH DAKOTA

CITY           SKY/WX    TMP DP  RH WIND       PRES   REMARKS
RAPID CTY ARPT CLEAR     75  39  27 SE10      29.74F
PIERRE         CLEAR     74  54  49 SE8       29.75F
CUSTER         CLOUDY    70  33  25 S9        29.87F
ELLSWORTH AFB  PTCLDY    77  37  23 SE12      29.73F
PHILIP         CLEAR     77  44  30 SE7       29.75F
PINE RIDGE     CLEAR     81  36  19 SE8       29.78F
SPEARFISH      FAIR      73  39  29 E7        29.75F
WINNER         FAIR      78  60  53 S7        29.79S
$$

SDZ004>011-016>023-039-040-190100-
NORTHEAST SOUTH DAKOTA

CITY           SKY/WX    TMP DP  RH WIND       PRES   REMARKS
ABERDEEN       CLEAR     73  56  54 SE7       29.79R
WATERTOWN      CLEAR     67  61  81 SE8       29.83S
BROOKINGS      CLEAR     69  60  73 SE9       29.85S
SISSETON         N/A     68  61  78 SE10      29.82R
$$

SDZ017-020-022-023-036>040-048>070-190100-
SOUTHEAST SOUTH DAKOTA

CITY           SKY/WX    TMP DP  RH WIND       PRES   REMARKS
SIOUX FALLS    PTCLDY    72  64  76 S9        29.84F
HURON          CLEAR     77  58  51 S9        29.79R
MITCHELL       CLEAR     75  61  61 S13       29.81R
YANKTON        PTCLDY    73  64  73 S8        29.83
$$

ABBREVIATIONS USED IN REMARKS
   TC - TEMPERATURE IN CELSIUS
  WCI - WIND CHILL INDEX
   HX - HEAT INDEX
  VSB - VISIBILITY





USA.gov is the U.S. government's official web portal to all federal, state and local government web resources and services.